EST,Max TemperatureF,Mean TemperatureF,Min TemperatureF,Max Dew PointF,MeanDew PointF,Min DewpointF,Max Humidity, Mean Humidity, Min Humidity, Max Sea Level PressureIn, Mean Sea Level PressureIn, Min Sea Level PressureIn, Max VisibilityMiles, Mean VisibilityMiles, Min VisibilityMiles, Max Wind SpeedMPH, Mean Wind SpeedMPH, Max Gust SpeedMPH,PrecipitationIn, CloudCover, Events, WindDirDegrees
2012-11-1,64,50,37,32,28,18,81,50,16,29.95,29.88,29.83,10,10,10,15,6,24,0.00,0,,265
2012-11-2,75,55,35,45,35,27,82,54,24,30.01,29.95,29.86,10,10,10,17,4,23,0.00,0,,255
2012-11-3,73,55,37,50,41,32,100,64,25,30.13,30.05,29.96,10,10,10,8,2,,0.00,0,,154
2012-11-4,82,66,50,61,54,50,100,79,34,30.04,29.97,29.90,10,10,3,22,3,38,0.00,2,Rain-Thunderstorm,245
2012-11-5,62,53,44,55,46,39,100,77,42,30.06,30.02,29.95,10,10,10,10,3,16,0.00,2,,31
2012-11-6,53,45,37,45,40,37,100,76,54,30.03,29.97,29.91,10,10,10,13,6,17,0.00,6,Rain,26
2012-11-7,51,43,35,41,37,34,100,84,54,29.99,29.93,29.88,10,10,4,10,5,16,0.00,3,,308
2012-11-8,64,50,35,41,35,27,100,72,24,30.16,30.09,30.00,10,8,1,10,4,17,0.00,0,,309
2012-11-9,68,50,32,41,34,28,100,67,24,30.30,30.24,30.16,10,10,10,8,2,,0.00,0,,326
2012-11-10,71,52,33,43,37,32,100,64,25,30.40,30.35,30.28,10,10,10,7,1,,0.00,0,,176
2012-11-11,75,57,39,59,51,37,100,76,47,30.44,30.39,30.36,10,10,10,12,3,,0.00,4,,91
2012-11-12,77,67,57,63,61,55,100,83,47,30.36,30.28,30.19,10,9,4,13,4,16,0.00,6,Rain,139
2012-11-13,71,61,51,63,57,48,100,91,69,30.31,30.22,30.17,10,9,1,10,3,17,0.00,6,Rain,358
2012-11-14,51,48,46,48,43,41,94,78,71,30.39,30.32,30.25,10,10,10,12,8,17,0.00,8,,34
2012-11-15,50,46,42,46,44,43,100,96,76,30.28,30.23,30.19,10,7,2,17,6,18,0.00,8,Rain-Thunderstorm,3
2012-11-16,53,48,44,50,45,43,100,90,72,30.32,30.27,30.23,10,9,4,9,4,,0.00,7,,15
2012-11-17,55,46,37,45,41,37,100,76,54,30.37,30.33,30.30,10,10,10,12,6,22,0.00,3,,18
2012-11-18,53,50,46,50,47,41,100,89,67,30.32,30.27,30.22,10,10,5,13,8,21,0.00,8,Rain,359
2012-11-19,62,56,51,52,49,46,94,79,63,30.24,30.18,30.13,10,10,10,14,7,21,0.00,6,,360
2012-11-20,64,53,42,50,46,43,100,80,49,30.17,30.10,30.05,10,10,5,10,4,,0.00,0,,359
2012-11-21,64,50,35,46,39,36,100,76,34,30.14,30.10,30.07,10,9,2,12,2,17,0.00,0,,353
2012-11-22,62,48,33,37,33,25,100,69,24,30.24,30.18,30.14,10,10,10,13,5,18,0.00,0,,347
2012-11-23,69,50,30,45,37,30,100,66,30,30.19,30.08,29.96,10,10,5,13,3,16,0.00,0,,248
2012-11-24,60,48,33,43,35,28,87,60,31,30.10,30.03,29.96,10,10,10,12,6,16,0.00,0,,306
2012-11-25,60,45,30,41,31,23,100,69,31,30.21,30.15,30.09,10,10,4,8,2,,0.00,0,,67
2012-11-26,68,50,32,36,31,21,100,64,17,30.27,30.20,30.14,10,9,0,8,1,,0.00,0,Fog,211
2012-11-27,59,47,35,54,45,34,100,90,55,30.21,30.18,30.11,10,9,5,8,1,16,0.00,6,Rain,321
2012-11-28,59,46,33,52,43,34,100,85,48,30.40,30.30,30.17,10,8,0,10,3,,0.00,4,Fog,17
2012-11-29,60,45,30,41,33,28,100,74,29,30.47,30.41,30.37,10,10,7,9,2,,0.00,1,,54
2012-11-30,68,52,37,52,44,37,100,80,46,30.41,30.35,30.30,10,10,7,7,1,,0.00,3,,92